User: anonymous   Login
Location: *
(44.1392°N, 4.8079°E)
Time: 05:34:49
(UTC+00:00)
Language:

ASTEX 1 - Orbit

View from above orbital plane
View from above orbital plane
View from above satellite
View from above satellite

Ground track
Ground track

The orbit data is extracted from the following two-line orbital elements,

1 05560U 71089A   21261.51390014  .00000077  00000-0  20990-4 0  9994
2 05560  92.7225 344.5395 0016160 180.2015 179.9186 14.48152284625776
Epoch (UTC): 18 September 2021 12:20:00
Eccentricity: 0.0016160
inclination: 92.7225°
perigee height: 720 km
apogee height: 743 km
right ascension of ascending node: 344.5395°
argument of perigee: 180.2015°
revolutions per day: 14.48152284
mean anomaly at epoch: 179.9186°
orbit number at epoch: 62577

The dashed part of the orbit path shows where the satellite is in the earth's shadow,  

DLR